WZM9EQ LUKK-LCLK

Flight info

Callsign WZM9EQ
Flight time 2h 9m
Altitude 35000
Route LIPTA DCT USHUZ DCT RIPGA DCT PILAT DCT GOSLO DCT RIXEN UG1 IST UT35 AYT UA16 TOMBI DCT DASNI DCT BONEK
Aircraft A321/M-SDE3FGHIRWY/LB1

Departure

Time 2026-04-29 12:46
Airport Chişinău International Airport (LUKK)

Arrival

Time 2026-04-29 14:55
Airport Larnaca International Airport (LCLK)
Time Latitude Longitude Altitude Speed Heading
2026-04-29 12:12 46.93358 28.93726 330 ft 0 kts
2026-04-29 12:16 46.93357 28.93726 330 ft 0 kts
2026-04-29 12:35 46.93358 28.93726 330 ft 0 kts
2026-04-29 12:35 46.93361 28.93726 330 ft 1 kts
2026-04-29 12:35 46.93365 28.93727 330 ft 0 kts
2026-04-29 12:36 46.93368 28.93727 330 ft 1 kts
2026-04-29 12:37 46.93381 28.93728 328 ft 3 kts 359°
2026-04-29 12:37 46.93398 28.93705 330 ft 4 kts 294°
2026-04-29 12:37 46.93406 28.93655 331 ft 6 kts 279°
2026-04-29 12:37 46.93413 28.93584 331 ft 8 kts 277°
2026-04-29 12:38 46.93421 28.93496 334 ft 10 kts 281°
2026-04-29 12:38 46.93431 28.93391 337 ft 11 kts 276°
2026-04-29 12:38 46.93441 28.93271 340 ft 13 kts 277°
2026-04-29 12:38 46.93451 28.93137 347 ft 14 kts 277°
2026-04-29 12:39 46.93467 28.92993 347 ft 11 kts 279°
2026-04-29 12:39 46.93479 28.92875 350 ft 12 kts 277°
2026-04-29 12:39 46.93455 28.92765 355 ft 13 kts 207°
2026-04-29 12:39 46.93355 28.92743 361 ft 17 kts 186°
2026-04-29 12:40 46.93234 28.92720 360 ft 17 kts 194°
2026-04-29 12:40 46.93210 28.92626 359 ft 8 kts 296°
2026-04-29 12:40 46.93225 28.92539 354 ft 10 kts 277°
2026-04-29 12:40 46.93235 28.92430 359 ft 11 kts 276°
2026-04-29 12:41 46.93244 28.92312 363 ft 12 kts 277°
2026-04-29 12:41 46.93254 28.92190 367 ft 13 kts 277°
2026-04-29 12:41 46.93252 28.92059 372 ft 13 kts 235°
2026-04-29 12:41 46.93165 28.92010 371 ft 15 kts 195°
2026-04-29 12:42 46.93056 28.91988 372 ft 16 kts 176°
2026-04-29 12:42 46.92942 28.91991 378 ft 16 kts 180°
2026-04-29 12:42 46.92829 28.91998 382 ft 17 kts 178°
2026-04-29 12:42 46.92755 28.91914 386 ft 15 kts 257°
2026-04-29 12:43 46.92753 28.91757 389 ft 16 kts 267°
2026-04-29 12:43 46.92749 28.91589 391 ft 16 kts 268°
2026-04-29 12:43 46.92745 28.91419 398 ft 17 kts 269°
2026-04-29 12:43 46.92741 28.91231 401 ft 19 kts 268°
2026-04-29 12:44 46.92737 28.91032 406 ft 20 kts 268°
2026-04-29 12:44 46.92742 28.90870 407 ft 15 kts 291°
2026-04-29 12:44 46.92753 28.90753 407 ft 7 kts 209°
2026-04-29 12:44 46.92732 28.90794 407 ft 7 kts 86°
2026-04-29 12:45 46.92735 28.90889 407 ft 36 kts 88°
2026-04-29 12:45 46.92749 28.91610 394 ft 106 kts 88°
2026-04-29 12:45 46.92774 28.92885 363 ft 160 kts 89°
2026-04-29 12:45 46.92802 28.94715 797 ft 170 kts 89°
2026-04-29 12:46 46.92846 28.96464 1409 ft 174 kts 88°
2026-04-29 12:46 46.92884 28.98232 2057 ft 179 kts 89°
2026-04-29 12:46 46.92921 29.00125 2367 ft 197 kts 89°
2026-04-29 12:46 46.92960 29.02227 2606 ft 216 kts 89°
2026-04-29 12:47 46.92991 29.04522 2807 ft 238 kts 92°
2026-04-29 12:47 46.92471 29.06893 3063 ft 257 kts 129°
2026-04-29 12:47 46.91033 29.08377 3623 ft 263 kts 165°
2026-04-29 12:47 46.89224 29.08364 4312 ft 266 kts 200°
2026-04-29 12:48 46.87719 29.06825 5015 ft 268 kts 231°
2026-04-29 12:48 46.86712 29.04521 5755 ft 271 kts 242°
2026-04-29 12:48 46.85828 29.02071 6489 ft 274 kts 242°
2026-04-29 12:48 46.84939 28.99600 7209 ft 277 kts 242°
2026-04-29 12:49 46.84053 28.97135 7916 ft 280 kts 242°
2026-04-29 12:49 46.83074 28.94729 8594 ft 283 kts 235°
2026-04-29 12:49 46.81889 28.92403 9291 ft 285 kts 231°
2026-04-29 12:49 46.80625 28.90142 9974 ft 288 kts 230°
2026-04-29 12:50 46.79313 28.87851 10365 ft 304 kts 230°
2026-04-29 12:50 46.77909 28.85390 10501 ft 327 kts 230°
2026-04-29 12:50 46.76424 28.82748 10623 ft 348 kts 231°
2026-04-29 12:50 46.74861 28.79923 10809 ft 365 kts 231°
2026-04-29 12:51 46.73257 28.76993 11317 ft 372 kts 231°
2026-04-29 12:51 46.71647 28.74029 11926 ft 376 kts 231°
2026-04-29 12:51 46.70016 28.71027 12539 ft 379 kts 231°
2026-04-29 12:51 46.68368 28.68006 13138 ft 383 kts 231°
2026-04-29 12:52 46.66704 28.64961 13737 ft 386 kts 231°
2026-04-29 12:52 46.65024 28.61884 14324 ft 389 kts 231°
2026-04-29 12:52 46.63131 28.59047 14890 ft 393 kts 220°
2026-04-29 12:52 46.60872 28.56800 15455 ft 396 kts 208°
2026-04-29 12:53 46.58324 28.55229 16015 ft 400 kts 199°
2026-04-29 12:53 46.55686 28.53885 16575 ft 403 kts 199°
2026-04-29 12:53 46.53033 28.52522 17128 ft 406 kts 200°
2026-04-29 12:53 46.50360 28.51138 17671 ft 409 kts 200°
2026-04-29 12:54 46.47669 28.49740 18183 ft 412 kts 200°
2026-04-29 12:54 46.44958 28.48331 18675 ft 416 kts 200°
2026-04-29 12:54 46.42262 28.46933 19149 ft 418 kts 200°
2026-04-29 12:54 46.39477 28.45491 19616 ft 421 kts 200°
2026-04-29 12:55 46.36745 28.44078 20062 ft 424 kts 200°
2026-04-29 12:55 46.33913 28.42617 20513 ft 427 kts 200°
2026-04-29 12:55 46.31146 28.41192 20943 ft 430 kts 200°
2026-04-29 12:55 46.28316 28.39741 21362 ft 432 kts 199°
2026-04-29 12:56 46.25479 28.38289 21759 ft 435 kts 199°
2026-04-29 12:56 46.22618 28.36825 22153 ft 438 kts 200°
2026-04-29 12:56 46.19735 28.35346 22541 ft 440 kts 200°
2026-04-29 12:56 46.16843 28.33862 22919 ft 443 kts 200°
2026-04-29 12:57 46.13933 28.32373 23292 ft 445 kts 199°
2026-04-29 12:57 46.11005 28.30876 23661 ft 447 kts 200°
2026-04-29 12:57 46.08065 28.29375 24024 ft 450 kts 199°
2026-04-29 12:57 46.05109 28.27866 24376 ft 452 kts 199°
2026-04-29 12:58 46.02135 28.26354 24715 ft 455 kts 199°
2026-04-29 12:58 45.99142 28.24838 25045 ft 457 kts 199°
2026-04-29 12:58 45.96139 28.23319 25358 ft 459 kts 199°
2026-04-29 12:58 45.93111 28.21788 25680 ft 461 kts 199°
2026-04-29 12:59 45.90079 28.20253 25994 ft 464 kts 199°
2026-04-29 12:59 45.87029 28.18708 26306 ft 466 kts 199°
2026-04-29 12:59 45.83969 28.17158 26621 ft 468 kts 199°
2026-04-29 12:59 45.80886 28.15596 26927 ft 470 kts 199°
2026-04-29 13:00 45.78849 28.14566 27121 ft 471 kts 199°
2026-04-29 13:00 45.75736 28.13058 27420 ft 473 kts 198°
2026-04-29 13:00 45.71567 28.11268 27960 ft 471 kts 196°
2026-04-29 13:00 45.69437 28.10423 28226 ft 470 kts 195°
2026-04-29 13:01 45.65256 28.08817 28736 ft 469 kts 195°
2026-04-29 13:01 45.62111 28.07603 29108 ft 469 kts 195°
2026-04-29 13:01 45.59983 28.06769 29358 ft 468 kts 195°
2026-04-29 13:01 45.56854 28.05518 29724 ft 467 kts 196°
2026-04-29 13:02 45.53761 28.04255 30080 ft 467 kts 196°
2026-04-29 13:02 45.50615 28.02959 31484 ft 463 kts 202°
2026-04-29 13:02 45.47549 28.01700 32133 ft 454 kts 205°
2026-04-29 13:02 45.44566 28.00478 32559 ft 452 kts 205°
2026-04-29 13:03 45.41505 27.99222 32888 ft 452 kts 205°
2026-04-29 13:03 45.38524 27.98003 33166 ft 453 kts 205°
2026-04-29 13:03 45.35483 27.96767 33435 ft 454 kts 205°
2026-04-29 13:03 45.32432 27.95534 33708 ft 455 kts 204°
2026-04-29 13:04 45.29385 27.94305 33982 ft 456 kts 204°
2026-04-29 13:04 45.26331 27.93075 34276 ft 456 kts 204°
2026-04-29 13:04 45.23249 27.91975 34569 ft 461 kts 197°
2026-04-29 13:04 45.20027 27.91556 34857 ft 470 kts 187°
2026-04-29 13:05 45.16738 27.91953 35100 ft 480 kts 176°
2026-04-29 13:05 45.13484 27.93202 35167 ft 490 kts 165°
2026-04-29 13:05 45.10304 27.94928 35175 ft 490 kts 165°
2026-04-29 13:06 45.03943 27.98359 35174 ft 488 kts 166°
2026-04-29 13:06 44.97604 28.01728 35172 ft 487 kts 166°
2026-04-29 13:07 44.91262 28.05081 35172 ft 487 kts 167°
2026-04-29 13:07 44.84949 28.08415 35175 ft 487 kts 167°
2026-04-29 13:08 44.78495 28.10834 35170 ft 476 kts 178°
2026-04-29 13:08 44.71981 28.12585 35165 ft 477 kts 178°
2026-04-29 13:09 44.65461 28.14345 35162 ft 478 kts 178°
2026-04-29 13:09 44.58924 28.16112 35162 ft 479 kts 178°
2026-04-29 13:10 44.52375 28.17886 35160 ft 480 kts 178°
2026-04-29 13:10 44.45811 28.19652 35160 ft 481 kts 178°
2026-04-29 13:11 44.39224 28.21413 35162 ft 482 kts 178°
2026-04-29 13:11 44.32629 28.23174 35162 ft 483 kts 178°
2026-04-29 13:12 44.26019 28.24933 35165 ft 484 kts 178°
2026-04-29 13:12 44.19398 28.26693 35165 ft 485 kts 178°
2026-04-29 13:13 44.12767 28.28465 35172 ft 485 kts 178°
2026-04-29 13:13 44.06142 28.30229 35162 ft 485 kts 178°
2026-04-29 13:14 43.99496 28.31990 35162 ft 485 kts 178°
2026-04-29 13:14 43.92865 28.33738 35169 ft 485 kts 178°
2026-04-29 13:15 43.86237 28.35475 35172 ft 485 kts 178°
2026-04-29 13:15 43.79614 28.37205 35175 ft 484 kts 178°
2026-04-29 13:16 43.72989 28.38939 35170 ft 484 kts 178°
2026-04-29 13:16 43.66381 28.40680 35169 ft 484 kts 178°
2026-04-29 13:17 43.59764 28.42407 35171 ft 483 kts 178°
2026-04-29 13:17 43.53197 28.44108 35175 ft 483 kts 178°
2026-04-29 13:18 43.46585 28.45721 35174 ft 481 kts 179°
2026-04-29 13:18 43.39978 28.47188 35176 ft 480 kts 179°
2026-04-29 13:19 43.33371 28.48633 35177 ft 481 kts 179°
2026-04-29 13:19 43.26776 28.50125 35178 ft 481 kts 179°
2026-04-29 13:20 43.20180 28.51642 35180 ft 481 kts 178°
2026-04-29 13:20 43.13582 28.53153 35182 ft 480 kts 178°
2026-04-29 13:21 43.06994 28.54651 35182 ft 479 kts 179°
2026-04-29 13:21 43.00414 28.56134 35187 ft 479 kts 178°
2026-04-29 13:22 42.93880 28.57611 35182 ft 478 kts 178°
2026-04-29 13:22 42.87272 28.59101 35187 ft 478 kts 178°
2026-04-29 13:23 42.80750 28.60554 35182 ft 478 kts 178°
2026-04-29 13:23 42.74199 28.62013 35185 ft 477 kts 178°
2026-04-29 13:24 42.67636 28.63480 35179 ft 477 kts 178°
2026-04-29 13:24 42.61095 28.64938 35176 ft 477 kts 178°
2026-04-29 13:25 42.54546 28.66389 35184 ft 477 kts 178°
2026-04-29 13:25 42.44702 28.68580 35179 ft 477 kts 178°
2026-04-29 13:26 42.38146 28.70027 35181 ft 477 kts 178°
2026-04-29 13:26 42.31632 28.71469 35179 ft 478 kts 178°
2026-04-29 13:27 42.25071 28.72916 35180 ft 478 kts 178°
2026-04-29 13:27 42.18515 28.74354 35181 ft 477 kts 178°
2026-04-29 13:28 42.11952 28.75794 35181 ft 477 kts 178°
2026-04-29 13:28 42.05394 28.76735 35178 ft 469 kts 186°
2026-04-29 13:29 41.98865 28.76982 35176 ft 469 kts 185°
2026-04-29 13:29 41.92331 28.77228 35173 ft 469 kts 185°
2026-04-29 13:30 41.85809 28.77484 35176 ft 469 kts 185°
2026-04-29 13:30 41.79280 28.77750 35174 ft 469 kts 185°
2026-04-29 13:31 41.72795 28.78011 35173 ft 469 kts 185°
2026-04-29 13:31 41.66270 28.78269 35166 ft 469 kts 185°
2026-04-29 13:32 41.59734 28.78524 35169 ft 469 kts 185°
2026-04-29 13:32 41.53844 28.78742 35163 ft 469 kts 185°
2026-04-29 13:33 41.47324 28.78990 35158 ft 469 kts 185°
2026-04-29 13:33 41.40956 28.79240 35154 ft 469 kts 185°
2026-04-29 13:34 41.34469 28.79493 35142 ft 469 kts 185°
2026-04-29 13:34 41.27880 28.79748 35142 ft 469 kts 185°
2026-04-29 13:35 41.21351 28.79998 35146 ft 470 kts 184°
2026-04-29 13:35 41.14816 28.80267 35154 ft 470 kts 184°
2026-04-29 13:36 41.08284 28.80555 35128 ft 470 kts 184°
2026-04-29 13:36 41.01750 28.80841 35127 ft 470 kts 184°
2026-04-29 13:37 40.95233 28.81843 35126 ft 479 kts 169°
2026-04-29 13:37 40.88953 28.85006 35125 ft 484 kts 162°
2026-04-29 13:38 40.82768 28.88391 35125 ft 484 kts 162°
2026-04-29 13:38 40.76536 28.91775 35127 ft 484 kts 162°
2026-04-29 13:39 40.70312 28.95152 35129 ft 484 kts 162°
2026-04-29 13:39 40.64088 28.98534 35129 ft 484 kts 162°
2026-04-29 13:40 40.57857 29.01911 35129 ft 484 kts 162°
2026-04-29 13:40 40.51629 29.05271 35125 ft 483 kts 162°
2026-04-29 13:41 40.45403 29.08613 35125 ft 483 kts 162°
2026-04-29 13:41 40.39188 29.11964 35124 ft 483 kts 162°
2026-04-29 13:42 40.32963 29.15305 35120 ft 483 kts 162°
2026-04-29 13:42 40.26737 29.18634 35117 ft 483 kts 162°
2026-04-29 13:43 40.20516 29.21969 35111 ft 483 kts 162°
2026-04-29 13:43 40.14297 29.25291 35108 ft 483 kts 162°
2026-04-29 13:44 40.08072 29.28596 35108 ft 482 kts 162°
2026-04-29 13:44 40.01906 29.31874 35102 ft 482 kts 162°
2026-04-29 13:45 39.95698 29.35174 35103 ft 482 kts 162°
2026-04-29 13:45 39.89480 29.38464 35104 ft 482 kts 161°
2026-04-29 13:46 39.83294 29.41838 35100 ft 482 kts 161°
2026-04-29 13:46 39.77141 29.45263 35098 ft 481 kts 160°
2026-04-29 13:47 39.70978 29.48673 35093 ft 480 kts 161°
2026-04-29 13:47 39.64813 29.52040 35089 ft 480 kts 161°
2026-04-29 13:48 39.58626 29.55273 35086 ft 479 kts 162°
2026-04-29 13:48 39.52436 29.58307 35078 ft 478 kts 163°
2026-04-29 13:49 39.47225 29.60853 35074 ft 478 kts 163°
2026-04-29 13:49 39.40015 29.64425 35069 ft 477 kts 162°
2026-04-29 13:50 39.33819 29.67510 35072 ft 477 kts 162°
2026-04-29 13:50 39.27622 29.70596 35073 ft 477 kts 162°
2026-04-29 13:51 39.22429 29.73167 35068 ft 477 kts 162°
2026-04-29 13:51 39.16263 29.76209 35070 ft 477 kts 162°
2026-04-29 13:52 39.10066 29.79267 35065 ft 477 kts 162°
2026-04-29 13:52 39.03866 29.82318 35066 ft 477 kts 162°
2026-04-29 13:53 38.97668 29.85354 35064 ft 477 kts 162°
2026-04-29 13:53 38.91468 29.88390 35067 ft 477 kts 162°
2026-04-29 13:54 38.85268 29.91412 35067 ft 477 kts 162°
2026-04-29 13:54 38.79049 29.94372 35071 ft 476 kts 163°
2026-04-29 13:55 38.72827 29.97301 35073 ft 476 kts 163°
2026-04-29 13:55 38.66622 30.00232 35069 ft 475 kts 163°
2026-04-29 13:56 38.60416 30.03178 35075 ft 475 kts 163°
2026-04-29 13:56 38.54222 30.06112 35073 ft 475 kts 163°
2026-04-29 13:57 38.48023 30.09026 35068 ft 474 kts 163°
2026-04-29 13:57 38.41823 30.11933 35071 ft 474 kts 163°
2026-04-29 13:58 38.35638 30.14846 35062 ft 474 kts 163°
2026-04-29 13:58 38.29443 30.17737 35067 ft 474 kts 163°
2026-04-29 13:59 38.23277 30.20560 35068 ft 474 kts 163°
2026-04-29 13:59 38.17070 30.23397 35059 ft 473 kts 163°
2026-04-29 14:00 38.10882 30.26233 35050 ft 473 kts 163°
2026-04-29 14:00 38.04682 30.29068 35050 ft 473 kts 163°
2026-04-29 14:01 37.98482 30.31903 35046 ft 474 kts 163°
2026-04-29 14:01 37.92271 30.34733 35034 ft 474 kts 163°
2026-04-29 14:02 37.86066 30.37531 35039 ft 474 kts 163°
2026-04-29 14:02 37.79853 30.40324 35053 ft 474 kts 163°
2026-04-29 14:03 37.73683 30.43109 35041 ft 474 kts 163°
2026-04-29 14:03 37.67468 30.45906 35046 ft 474 kts 163°
2026-04-29 14:04 37.61254 30.48691 35048 ft 474 kts 163°
2026-04-29 14:04 37.55028 30.51488 35047 ft 474 kts 163°
2026-04-29 14:05 37.48820 30.54272 35043 ft 474 kts 163°
2026-04-29 14:05 37.42599 30.57052 35041 ft 474 kts 163°
2026-04-29 14:06 37.36379 30.59828 35041 ft 474 kts 163°
2026-04-29 14:06 37.30166 30.62594 35040 ft 474 kts 163°
2026-04-29 14:07 37.23949 30.65360 35039 ft 474 kts 163°
2026-04-29 14:07 37.17737 30.68118 35028 ft 473 kts 163°
2026-04-29 14:08 37.11537 30.70863 35022 ft 473 kts 163°
2026-04-29 14:08 37.05373 30.73580 35019 ft 472 kts 163°
2026-04-29 14:09 36.99177 30.76312 35018 ft 472 kts 163°
2026-04-29 14:09 36.92954 30.78883 35018 ft 469 kts 171°
2026-04-29 14:10 36.86529 30.79641 35016 ft 462 kts 182°
2026-04-29 14:10 36.80090 30.79849 35017 ft 462 kts 182°
2026-04-29 14:11 36.73658 30.80077 35013 ft 462 kts 182°
2026-04-29 14:11 36.67233 30.80316 35013 ft 462 kts 182°
2026-04-29 14:12 36.60798 30.80546 35010 ft 462 kts 182°
2026-04-29 14:12 36.54376 30.80770 35004 ft 462 kts 182°
2026-04-29 14:13 36.47947 30.80981 35004 ft 461 kts 182°
2026-04-29 14:13 36.41529 30.81193 35003 ft 461 kts 182°
2026-04-29 14:14 36.35148 30.81415 35003 ft 461 kts 182°
2026-04-29 14:14 36.28721 30.81637 35002 ft 462 kts 182°
2026-04-29 14:15 36.22299 30.81843 35002 ft 462 kts 182°
2026-04-29 14:15 36.15874 30.82049 35004 ft 462 kts 182°
2026-04-29 14:16 36.09440 30.82256 35007 ft 462 kts 182°
2026-04-29 14:16 36.03013 30.82472 35011 ft 462 kts 181°
2026-04-29 14:17 35.96584 30.82822 35009 ft 463 kts 180°
2026-04-29 14:17 35.90158 30.83268 35008 ft 462 kts 180°
2026-04-29 14:18 35.83775 30.83683 35007 ft 462 kts 180°
2026-04-29 14:18 35.77360 30.84069 35005 ft 462 kts 181°
2026-04-29 14:19 35.70947 30.84479 35003 ft 463 kts 176°
2026-04-29 14:19 35.67791 30.85337 34998 ft 468 kts 163°
2026-04-29 14:19 35.64839 30.87070 35000 ft 473 kts 149°
2026-04-29 14:20 35.62261 30.89588 34996 ft 476 kts 136°
2026-04-29 14:20 35.60202 30.92781 34991 ft 479 kts 122°
2026-04-29 14:20 35.58783 30.96478 34985 ft 480 kts 108°
2026-04-29 14:20 35.57789 31.00407 34979 ft 481 kts 107°
2026-04-29 14:21 35.55822 31.08270 34977 ft 482 kts 108°
2026-04-29 14:21 35.53828 31.16154 34980 ft 483 kts 108°
2026-04-29 14:22 35.51821 31.24036 34985 ft 484 kts 108°
2026-04-29 14:22 35.49805 31.31920 34990 ft 485 kts 108°
2026-04-29 14:23 35.47791 31.39815 34994 ft 485 kts 108°
2026-04-29 14:23 35.45769 31.47714 34998 ft 485 kts 108°
2026-04-29 14:24 35.43756 31.55553 34998 ft 485 kts 108°
2026-04-29 14:24 35.41719 31.63453 35002 ft 486 kts 108°
2026-04-29 14:25 35.39674 31.71350 35003 ft 486 kts 108°
2026-04-29 14:25 35.37629 31.79244 35004 ft 486 kts 108°
2026-04-29 14:26 35.35571 31.87145 35008 ft 487 kts 108°
2026-04-29 14:26 35.34539 31.91101 34873 ft 488 kts 108°
2026-04-29 14:26 35.33509 31.95049 34637 ft 486 kts 108°
2026-04-29 14:27 35.32482 31.98987 34402 ft 485 kts 108°
2026-04-29 14:27 35.31454 32.02924 34174 ft 484 kts 108°
2026-04-29 14:27 35.30425 32.06843 33933 ft 484 kts 108°
2026-04-29 14:28 35.28365 32.14679 33393 ft 483 kts 108°
2026-04-29 14:28 35.27335 32.18594 33123 ft 484 kts 108°
2026-04-29 14:28 35.26304 32.22511 32860 ft 484 kts 108°
2026-04-29 14:28 35.25267 32.26432 32596 ft 484 kts 108°
2026-04-29 14:29 35.24228 32.30349 32334 ft 484 kts 108°
2026-04-29 14:29 35.23185 32.34269 32078 ft 485 kts 108°
2026-04-29 14:29 35.22140 32.38196 31826 ft 485 kts 108°
2026-04-29 14:29 35.21097 32.42114 31559 ft 485 kts 108°
2026-04-29 14:30 35.20052 32.46038 31309 ft 486 kts 108°
2026-04-29 14:30 35.19016 32.49922 30518 ft 490 kts 107°
2026-04-29 14:30 35.18351 32.52424 29788 ft 496 kts 107°
2026-04-29 14:31 35.18237 32.52853 29665 ft 496 kts 107°
2026-04-29 14:31 35.17870 32.54234 29317 ft 497 kts 107°
2026-04-29 14:33 35.16891 32.57827 28355 ft 498 kts 108°
2026-04-29 14:34 35.16815 32.58109 28294 ft 498 kts 108°
2026-04-29 14:36 35.15925 32.61294 27148 ft 503 kts 108°
2026-04-29 14:36 35.14844 32.65260 26436 ft 483 kts 107°
2026-04-29 14:36 35.13823 32.69098 25328 ft 468 kts 107°
2026-04-29 14:37 35.12848 32.72807 24498 ft 449 kts 107°
2026-04-29 14:37 35.11910 32.76374 23807 ft 445 kts 107°
2026-04-29 14:37 35.10984 32.79879 23002 ft 449 kts 107°
2026-04-29 14:37 35.09988 32.83613 22259 ft 446 kts 107°
2026-04-29 14:38 35.09023 32.87193 21547 ft 443 kts 107°
2026-04-29 14:38 35.08058 32.90742 20836 ft 440 kts 108°
2026-04-29 14:38 35.07093 32.94280 20133 ft 437 kts 108°
2026-04-29 14:38 35.06116 32.97784 19442 ft 435 kts 108°
2026-04-29 14:39 35.05124 33.01253 18768 ft 432 kts 109°
2026-04-29 14:39 35.04132 33.04663 18069 ft 431 kts 109°
2026-04-29 14:39 35.03127 33.08095 17370 ft 428 kts 109°
2026-04-29 14:39 35.02129 33.11499 16742 ft 424 kts 109°
2026-04-29 14:40 35.01143 33.14876 16116 ft 422 kts 109°
2026-04-29 14:40 35.00167 33.18244 15515 ft 419 kts 109°
2026-04-29 14:40 34.99205 33.21580 14929 ft 416 kts 109°
2026-04-29 14:40 34.98252 33.24898 14348 ft 413 kts 109°
2026-04-29 14:41 34.97303 33.28199 13743 ft 411 kts 109°
2026-04-29 14:41 34.96677 33.30368 13319 ft 409 kts 109°
2026-04-29 14:41 34.95736 33.33619 12699 ft 405 kts 109°
2026-04-29 14:41 34.94799 33.36839 12083 ft 400 kts 109°
2026-04-29 14:42 34.93869 33.40026 11458 ft 397 kts 109°
2026-04-29 14:42 34.92954 33.43160 11078 ft 386 kts 109°
2026-04-29 14:42 34.92074 33.46179 10959 ft 369 kts 109°
2026-04-29 14:42 34.91234 33.49057 10821 ft 353 kts 109°
2026-04-29 14:43 34.90429 33.51809 10703 ft 334 kts 109°
2026-04-29 14:43 34.89690 33.54335 10472 ft 308 kts 109°
2026-04-29 14:43 34.88990 33.56732 10008 ft 295 kts 109°
2026-04-29 14:43 34.88304 33.59081 9856 ft 293 kts 109°
2026-04-29 14:44 34.87720 33.61449 9737 ft 295 kts 100°
2026-04-29 14:44 34.87591 33.63924 9608 ft 293 kts 86°
2026-04-29 14:44 34.87907 33.66362 9476 ft 292 kts 78°
2026-04-29 14:44 34.88311 33.68782 9348 ft 292 kts 78°
2026-04-29 14:45 34.88712 33.71212 9002 ft 293 kts 79°
2026-04-29 14:45 34.89110 33.73642 8572 ft 294 kts 79°
2026-04-29 14:45 34.89507 33.76079 8222 ft 291 kts 79°
2026-04-29 14:45 34.89896 33.78473 7843 ft 291 kts 79°
2026-04-29 14:46 34.90286 33.80875 7497 ft 289 kts 79°
2026-04-29 14:46 34.90676 33.83279 7125 ft 288 kts 79°
2026-04-29 14:46 34.91066 33.85673 6775 ft 287 kts 79°
2026-04-29 14:46 34.91454 33.88055 6416 ft 286 kts 80°
2026-04-29 14:47 34.91830 33.90370 6069 ft 285 kts 79°
2026-04-29 14:47 34.92207 33.92687 5703 ft 284 kts 79°
2026-04-29 14:47 34.92587 33.95015 5342 ft 283 kts 78°
2026-04-29 14:47 34.93347 33.97207 4956 ft 283 kts 49°
2026-04-29 14:48 34.94928 33.98496 4787 ft 274 kts 13°
2026-04-29 14:48 34.96785 33.98465 4652 ft 270 kts 338°
2026-04-29 14:48 34.98278 33.97161 4529 ft 265 kts 303°
2026-04-29 14:48 34.98869 33.95087 4317 ft 263 kts 271°
2026-04-29 14:49 34.98784 33.92861 3964 ft 262 kts 265°
2026-04-29 14:49 34.98664 33.90649 3618 ft 262 kts 266°
2026-04-29 14:49 34.98540 33.88422 3247 ft 263 kts 266°
2026-04-29 14:49 34.98416 33.86214 3042 ft 256 kts 266°
2026-04-29 14:50 34.98298 33.84109 2978 ft 243 kts 266°
2026-04-29 14:50 34.98185 33.82122 2917 ft 226 kts 266°
2026-04-29 14:50 34.98079 33.80269 2825 ft 212 kts 266°
2026-04-29 14:50 34.97983 33.78586 2747 ft 191 kts 266°
2026-04-29 14:51 34.97861 33.77048 2658 ft 174 kts 262°
2026-04-29 14:51 34.97611 33.75661 2585 ft 162 kts 252°
2026-04-29 14:51 34.97125 33.74449 2460 ft 156 kts 231°
2026-04-29 14:51 34.96405 33.73507 2168 ft 148 kts 228°
2026-04-29 14:52 34.95705 33.72620 1953 ft 144 kts 228°
2026-04-29 14:52 34.95008 33.71751 1768 ft 143 kts 227°
2026-04-29 14:52 34.94311 33.70891 1592 ft 142 kts 227°
2026-04-29 14:52 34.93615 33.70036 1407 ft 141 kts 226°
2026-04-29 14:53 34.92930 33.69195 1251 ft 137 kts 225°
2026-04-29 14:53 34.92251 33.68363 1074 ft 138 kts 226°
2026-04-29 14:53 34.91585 33.67541 912 ft 136 kts 225°
2026-04-29 14:53 34.90926 33.66733 749 ft 133 kts 223°
2026-04-29 14:54 34.90280 33.65939 586 ft 131 kts 223°
2026-04-29 14:54 34.89639 33.65151 417 ft 132 kts 223°
2026-04-29 14:54 34.88987 33.64369 273 ft 129 kts 223°
2026-04-29 14:54 34.88371 33.63601 111 ft 130 kts 224°
2026-04-29 14:55 34.87734 33.62835 25 ft 113 kts 224°
2026-04-29 14:55 34.87367 33.62388 20 ft 29 kts 226°
2026-04-29 14:55 34.87368 33.62295 23 ft 11 kts 310°
2026-04-29 14:55 34.87376 33.62285 22 ft 1 kts 315°
2026-04-29 14:56 34.87379 33.62282 22 ft 0 kts 315°
2026-04-29 14:59 34.87381 33.62279 21 ft 1 kts 315°
2026-04-29 15:00 34.87392 33.62266 21 ft 3 kts 316°
2026-04-29 15:00 34.87414 33.62241 21 ft 5 kts 315°
2026-04-29 15:00 34.87445 33.62204 21 ft 7 kts 316°
2026-04-29 15:00 34.87486 33.62156 20 ft 9 kts 316°
2026-04-29 15:01 34.87516 33.62086 20 ft 10 kts 268°
2026-04-29 15:01 34.87474 33.62016 20 ft 11 kts 225°
2026-04-29 15:01 34.87418 33.61947 20 ft 12 kts 225°
2026-04-29 15:01 34.87355 33.61869 20 ft 14 kts 225°
2026-04-29 15:02 34.87284 33.61783 21 ft 15 kts 225°
2026-04-29 15:02 34.87208 33.61690 20 ft 16 kts 225°
2026-04-29 15:02 34.87126 33.61589 20 ft 17 kts 225°
2026-04-29 15:02 34.87040 33.61484 20 ft 18 kts 225°
2026-04-29 15:03 34.86948 33.61373 20 ft 19 kts 224°
2026-04-29 15:03 34.86853 33.61256 21 ft 20 kts 225°
2026-04-29 15:03 34.86756 33.61138 21 ft 18 kts 225°
2026-04-29 15:03 34.86691 33.61034 21 ft 14 kts 268°
2026-04-29 15:04 34.86748 33.60942 20 ft 14 kts 315°
2026-04-29 15:04 34.86792 33.60888 20 ft 8 kts 315°
2026-04-29 15:04 34.86818 33.60877 20 ft 2 kts 28°
2026-04-29 15:04 34.86832 33.60899 23 ft 4 kts 47°
2026-04-29 15:05 34.86858 33.60932 20 ft 6 kts 46°
2026-04-29 15:05 34.86865 33.60941 20 ft 2 kts 46°
2026-04-29 15:05 34.86878 33.60957 22 ft 0 kts 46°